Location: ??????????
(54.4061°N, 22.6114°E)
Time: 10:08:48
(UTC+00:00)

Resurs 01 Rocket - Pass Details

Date: 23 October 2019
Orbit: 633 x 645 km, 98.0° (Epoch: 22 November)

Event Time Altitude Azimuth Distance (km) Brightness Sun altitude
Exits shadow 18:15:50 28° 6° (N) 1,209 3.1 -26.8°
Drops below altitude 10° 18:18:07 10° 353° (N) 2,053 4.5 -27.1°
Sets 18:20:22 0° 348° (NNW) 2,965 5.5 -27.5°
